Regional Weather Roundup
Issued by NWS

Home | Current Version | Previous Version | Text Only | Print | Product List | Glossary Off
Versions: 1 2 3 4 5 6 7 8 9 10 11 12 13 14 15 16 17 18 19 20 21 22 23 24 25 26 27 28 29 30 31 32 33 34 35 36 37 38 39 40 41 42 43 44 45 46 47 48 49 50

000
ASUS43 KOAX 201802
RWRNE

WEATHER ROUNDUP FOR NEBRASKA
NATIONAL WEATHER SERVICE OMAHA NE
100 PM CDT THU JUL 20 2017

NOTES: SATELLITE DATA IS BEING USED TO AUGMENT CLOUD COVER ABOVE
       12000 FEET.
       "FAIR" INDICATES FEW OR NO CLOUDS BELOW 12,000 FEET WITH NO
       SIGNIFICANT WEATHER AND/OR OBSTRUCTIONS TO VISIBILITY.


NEZ001>004-019>022-054>056-201900-
NEBRASKA PANHANDLE

CITY           SKY/WX    TMP DP  RH WIND       PRES   REMARKS
SCOTTSBLUFF    CLOUDY    84  62  47 E6        30.13F
6HR MIN TEMP:  68; 6HR MAX TEMP:  84;

ALLIANCE       CLOUDY    80  63  55 VRB5      30.14F
6HR MIN TEMP:  66; 6HR MAX TEMP:  81;

CHADRON        SUNNY     89  58  34 SW12G18   30.07F
6HR MIN TEMP:  67; 6HR MAX TEMP:  89;

GORDON         FAIR      83  62  49 SE6       30.12F
6HR MIN TEMP:  67; 6HR MAX TEMP:  83;

KIMBALL        SUNNY     84  58  39 E3        30.19S
SIDNEY         SUNNY     87  58  37 VRB6      30.16S
6HR MIN TEMP:  68; 6HR MAX TEMP:  88;

$$

NEZ057>060-069>072-079>082-201900-
SOUTHWEST NEBRASKA

CITY           SKY/WX    TMP DP  RH WIND       PRES   REMARKS
NORTH PLATTE   CLOUDY    87  66  49 E15       30.05R
6HR MIN TEMP:  69; 6HR MAX TEMP:  87; 6HR PCP: TRACE;

IMPERIAL       SUNNY     92  56  29 VRB5      30.04F HX  90
6HR MIN TEMP:  72; 6HR MAX TEMP:  93;

LEXINGTON      CLOUDY    86  69  57 SE8       30.03R HX  90
MCCOOK         MOSUNNY   92  63  38 E9        30.00F HX  93
6HR MIN TEMP:  68; 6HR MAX TEMP:  93;

OGALLALA       MOSUNNY   89  57  33 E18G28    30.08F
$$

NEZ005>010-023>029-035>040-094-201900-
NORTH CENTRAL NEBRASKA

CITY           SKY/WX    TMP DP  RH WIND       PRES   REMARKS
VALENTINE      SUNNY     93  61  34 VRB6      30.05F HX  93
6HR MIN TEMP:  72; 6HR MAX TEMP:  93; 6HR PCP: TRACE;

AINSWORTH      CLOUDY    85  69  58 S12G20    30.08S
BROKEN BOW     CLOUDY    87  68  52 NE15      30.05F HX  90
6HR MIN TEMP:  68; 6HR MAX TEMP:  88; 6HR PCP: TRACE;

O`NEILL        MOSUNNY   80  73  80 CALM      30.05S
ORD            CLOUDY    86  64  47 E13       30.01F
6HR MIN TEMP:  71; 6HR MAX TEMP:  86; 6HR PCP: TRACE;

THEDFORD       CLOUDY    84  65  53 E10       30.10F
$$

NEZ041-046>049-061>064-073>077-083>087-201900-
SOUTH CENTRAL NEBRASKA

CITY           SKY/WX    TMP DP  RH WIND       PRES   REMARKS
GRAND ISLAND   CLOUDY    87  72  60 SE9       30.02S HX  93
6HR MIN TEMP:  74; 6HR MAX TEMP:  87;

AURORA         PTSUNNY   86  71  61 SE6       30.01S HX  91
HASTINGS       PTSUNNY   87  71  58 NE5       30.02F HX  93
6HR MIN TEMP:  74; 6HR MAX TEMP:  87;

HEBRON         SUNNY     92  72  52 SW5       29.99F HX 100
HOLDREGE       SUNNY     84  66  54 SE5       30.02S
KEARNEY        MOSUNNY   87  70  56 VRB7      30.03R HX  92
YORK           MOSUNNY   88  70  55 CALM      30.01S HX  92
$$

NEZ011>018-030>034-042>045-201900-
NORTHEAST NEBRASKA

CITY           SKY/WX    TMP DP  RH WIND       PRES   REMARKS
NORFOLK        CLOUDY    91  69  48 NE7       30.00F HX  96
6HR MIN TEMP:  74; 6HR MAX TEMP:  92;

ALBION         LGT RAIN  88  69  53 E6        30.02F HX  92
BLAIR          MOSUNNY   91  74  55 SE5       29.98S HX 100
COLUMBUS       CLOUDY    92  73  53 NE7       30.00S HX 100
FREMONT        SUNNY     93  71  48 E9        29.98S HX 100
TEKAMAH        SUNNY     93  76  57 SE5       29.96S HX 105
6HR MIN TEMP:  77; 6HR MAX TEMP:  93;

WAYNE          CLOUDY    88  81  81 NE6       30.00F HX 106
$$

NEZ050>053-065>068-078-088>093-201900-
SOUTHEAST NEBRASKA

CITY           SKY/WX    TMP DP  RH WIND       PRES   REMARKS
LINCOLN        MOSUNNY   92  72  51 SW6       29.98F HX  99
6HR MIN TEMP:  75; 6HR MAX TEMP:  92;

OMAHA EPPLEY   MOSUNNY   96  69  41 E6        29.95F HX 102
6HR MIN TEMP:  81; 6HR MAX TEMP:  96;

BEATRICE       SUNNY     93  71  48 CALM      29.99F HX 100
FALLS CITY     SUNNY     93  74  53 W5        29.98F HX 103
6HR MIN TEMP:  76; 6HR MAX TEMP:  94;

NEBRASKA CITY  SUNNY     89  77  66 S6        29.99F HX 101
PLATTSMOUTH    MOSUNNY   89  73  59 SW3       29.99S HX  97
$$

NEZ044-045-051>053-067-201900-
OMAHA AREA

CITY           SKY/WX    TMP DP  RH WIND       PRES   REMARKS
OMAHA EPPLEY   MOSUNNY   96  69  41 E6        29.95F HX 102
6HR MIN TEMP:  81; 6HR MAX TEMP:  96;

BLAIR          MOSUNNY   91  74  55 SE5       29.98S HX 100
FREMONT        SUNNY     93  71  48 E9        29.98S HX 100
MILLARD        MOSUNNY   96  73  48 E3        29.96F HX 105
OFFUTT AFB     MOSUNNY   92  73  54 S5        29.97S HX 100
PLATTSMOUTH    MOSUNNY   89  73  59 SW3       29.99S HX  97
WAHOO          FAIR      92  71  50 E5        29.97F HX  99
$$




USA.gov is the U.S. government's official web portal to all federal, state and local government web resources and services.